Location: Cabeza de los Veneras
(40.2000°N, 5.2000°W)
Time: 01:53:31
(UTC+00:00)

Cosmos 2297 Rocket - Pass Details

Date: 18 April 2024
Orbit: 840 x 841 km, 71.0° (Epoch: 25 May)

Event Time Altitude Azimuth Distance (km) Brightness Sun altitude
Rises 22:14:58 0° 328° (NNW) 3,402 6.5 -31.0°
Reaches altitude 10° 22:17:34 10° 320° (NW) 2,463 5.5 -31.3°
Enters shadow 22:22:23 37° 263° (W) 1,289 3.2 -31.8°
